Regional Weather Roundup
Issued by NWS Sioux Falls, SD

Home | Current Version | Previous Version | Graphics & Text | Print | Product List | Glossary On
Versions: 1 2 3 4 5 6 7 8 9 10 11 12 13 14 15 16 17 18 19 20 21 22 23 24 25 26 27 28 29 30 31 32 33 34 35 36 37 38 39 40 41 42 43 44 45 46 47 48 49 50
000
ASUS43 KFSD 071702
RWRFSD

WEATHER ROUNDUP FOR SE SOUTH DAKOTA/SW MINNESOTA/NW IOWA
NATIONAL WEATHER SERVICE SIOUX FALLS SD
1100 AM CST WED DEC 07 2016

NOTE: "FAIR" INDICATES FEW OR NO CLOUDS BELOW 12,000 FEET WITH NO
SIGNIFICANT WEATHER AND OR OBSTRUCTIONS TO VISIBILITY.


SDZ038>040-050-052>070-071800-
SOUTHEAST SOUTH DAKOTA

CITY           SKY/WX    TMP DP  RH WIND       PRES   REMARKS
CHAMBERLAIN    CLOUDY    10   2  70 NW22G28   30.34R WCI  -9
HURON          CLOUDY    14   4  64 W25G32    30.27S WCI  -5
MADISON        CLOUDY    10   7  85 W23G30    30.20R WCI -10
MITCHELL       MOSUNNY   14   3  61 NW25G35   30.30R WCI  -5
SIOUX FALLS    CLOUDY    15   6  67 NW21G33   30.22R WCI  -2
WINNER         FAIR      11  -1  58 NW26      30.34S WCI -10
YANKTON        MOSUNNY  N/A N/A N/A W22G29    30.29F
$$

MNZ071-072-080-081-089-090-097-098-071800-
SOUTHWEST MINNESOTA

CITY           SKY/WX    TMP DP  RH WIND       PRES   REMARKS
FAIRMONT       MOSUNNY   17   8  67 W23       30.14S WCI  -1
JACKSON        SUNNY     16   7  67 W18G29    30.13S WCI  -1
LUVERNE        PTSUNNY   16   7  67 NW24G31   30.21R WCI  -3
MARSHALL       SUNNY     16   7  67 W31       30.13F WCI  -4
MONTEVIDEO     CLOUDY    18   9  68 NW16G26   30.13S WCI   3
PIPESTONE      MOSUNNY   14   7  73 NW22G32   30.15S WCI  -4
REDWOOD FALLS  CLOUDY    18   5  57 W22G32    30.13S WCI   1
TRACY          SUNNY     17   9  69 W17G29    30.14S WCI   2
WINDOM         SUNNY     18   9  68 W26G35    30.12S WCI  -1
WORTHINGTON    SUNNY     14   7  73 W28G36    30.15R WCI  -6
$$

IAZ001>003-012>014-020>022-031-032-NEZ013-014-SDZ071-071800-
NORTHWEST IOWA

CITY           SKY/WX    TMP DP  RH WIND       PRES   REMARKS
CHEROKEE       CLOUDY    17   8  66 W16G23    30.24S WCI   2
DENISON        CLOUDY    18   9  68 W13G20    30.25S WCI   4
ESTHERVILLE    SUNNY     17   9  70 W24       30.14F WCI  -1
LE MARS        MOSUNNY   18   9  68 W17G23    30.28R WCI   2
ORANGE CITY    CLOUDY    16   9  73 W25       30.22S WCI  -3
SHELDON        CLOUDY    16   9  73 W22G28    30.19S WCI  -2
SIOUX CITY     CLOUDY    19   7  59 NW17      30.30R WCI   4
SPENCER        SUNNY     16   6  65 W31G40    30.19R WCI  -4
STORM LAKE     CLOUDY    16   9  73 NW23      30.20S WCI  -2
$$

ABBREVIATIONS USED IN REMARKS
   TC - TEMPERATURE IN CELSIUS
  WCI - WIND CHILL INDEX
   HX - HEAT INDEX
  VSB - VISIBILITY





USA.gov is the U.S. government's official web portal to all federal, state and local government web resources and services.